Location: NJAA Observatory
(40.6819°N, 74.8979°W)
Time: 21:37:54
(UTC-04:00)

Cosmos 2237 Rocket - Visible Passes

Search period start: 02 June 2015 00:00
Search period end: 12 June 2015 00:00
Orbit: 835 x 850 km, 71.0° (Epoch: 02 June)

Date Brightness Start Highest point End Pass type
(mag) Time Alt. Az. Time Alt. Az. Time Alt. Az.
02 Jun 2.2 21:46:58 10° SSW 21:52:36 70° ESE 21:58:17 10° NNE visible
02 Jun 4.7 23:33:15 10° W 23:37:19 19° NW 23:41:14 10° N visible
03 Jun 2.2 21:32:12 10° S 21:37:49 67° ESE 21:43:29 10° NNE visible
03 Jun 4.7 23:18:19 10° W 23:22:30 20° NW 23:26:31 10° N visible
04 Jun 2.2 21:17:26 10° S 21:23:02 63° ESE 21:28:40 10° NNE visible
04 Jun 4.7 23:03:23 10° W 23:07:39 21° NW 23:11:47 10° N visible
05 Jun 2.3 21:02:40 10° S 21:08:15 60° ESE 21:13:51 10° NNE visible
05 Jun 4.7 22:48:27 10° WSW 22:52:49 22° NW 22:57:03 10° N visible
06 Jun 4.7 22:33:31 10° WSW 22:37:59 22° NW 22:42:19 10° N visible
07 Jun 4.7 22:18:36 10° WSW 22:23:09 23° NW 22:27:35 10° N visible
08 Jun 4.7 22:03:41 10° WSW 22:08:19 24° NW 22:12:51 10° N visible
09 Jun 4.7 21:48:46 10° WSW 21:53:29 25° NW 21:58:06 10° N visible
10 Jun 4.6 21:33:51 10° WSW 21:38:39 26° NW 21:43:21 10° N visible
11 Jun 5.1 04:43:45 10° N 04:48:05 23° NE 04:52:32 10° ESE visible
11 Jun 4.6 21:18:57 10° WSW 21:23:49 28° NW 21:28:36 10° N visible
